User: anonymous   Login
Location: Bailleul
(50.3375°N, 2.8513°E)
Time: 18:43:57
(UTC+00:00)
Language:

BREEZE-M DEB (TANK) - Orbit

View from above orbital plane
View from above orbital plane
View from above satellite
View from above satellite

Ground track
Ground track

The orbit data is extracted from the following two-line orbital elements,

1 37220U 10061C   21262.77440526  .00000553  00000-0  21645-3 0  9994
2 37220  49.3463 137.0895 5465209 154.5716 247.5724  4.80691725189032
Epoch (UTC): 19 September 2021 18:35:08
Eccentricity: 0.5465209
inclination: 49.3463°
perigee height: 347 km
apogee height: 16557 km
right ascension of ascending node: 137.0895°
argument of perigee: 154.5716°
revolutions per day: 4.80691725
mean anomaly at epoch: 247.5724°
orbit number at epoch: 18903

The dashed part of the orbit path shows where the satellite is in the earth's shadow,  

DLR